DW0465 Weather Reports


Display with metric or nautical units.
time (UTC)temp
F
wind
direction
speed
MPH
gust
MPH
rain 1hr
in
rain 24hr
in
rain mn
in
humidity
%
barometer
mb
20260903161523 68 66 0.0 0.0 0.00 0.00 0.00 36 1003.9
20260903160015 67 185 0.0 0.0 0.00 0.00 0.00 31 1003.9
20260903154511 65 210 0.0 0.0 0.00 0.00 0.00 31 1004.0
20260903153006 63 200 0.0 0.0 0.00 0.00 0.00 35 1003.9
20260903151505 62 199 0.0 0.0 0.00 0.00 0.00 36 1003.9
20260903150113 60 207 0.0 0.0 0.00 0.00 0.00 37 1004.0
20260903144554 57 188 0.0 1.0 0.00 0.00 0.00 41 1004.1
20260903143050 55 232 0.0 1.0 0.00 0.00 0.00 45 1004.3
20260903141548 52 192 0.0 3.0 0.00 0.00 0.00 48 1004.2
20260903140042 49 226 0.0 3.0 0.00 0.00 0.00 52 1004.0
20260903134538 49 231 0.0 2.0 0.00 0.00 0.00 52 1003.7
20260903133047 49 207 0.0 1.0 0.00 0.00 0.00 50 1003.5
20260903131535 48 188 0.0 3.0 0.00 0.00 0.00 52 1003.5
20260903130033 48 213 0.0 2.0 0.00 0.00 0.00 55 1003.1
20260903124528 48 236 0.0 2.0 0.00 0.00 0.00 56 1002.9
20260903123029 48 218 0.0 1.0 0.00 0.00 0.00 54 1002.4
20260903121522 50 249 0.0 0.0 0.00 0.00 0.00 52 1002.2
20260903120026 51 231 0.0 2.0 0.00 0.00 0.00 49 1002.1
20260903114518 51 223 0.0 2.0 0.00 0.00 0.00 49 1002.2
20260903113015 53 203 0.0 2.0 0.00 0.00 0.00 47 1002.2
20260903111520 55 146 0.0 1.0 0.00 0.00 0.00 45 1002.3
20260903110014 55 169 0.0 1.0 0.00 0.00 0.00 42 1002.2
20260903104515 55 202 0.0 3.0 0.00 0.00 0.00 41 1002.3
20260903103011 54 192 0.0 2.0 0.00 0.00 0.00 42 1002.3
20260903101510 54 226 0.0 3.0 0.00 0.00 0.00 44 1002.1
20260903100010 54 218 0.0 3.0 0.00 0.00 0.00 44 1002.1
20260903094508 53 209 0.0 0.0 0.00 0.00 0.00 46 1002.0
20260903093015 53 223 0.0 0.0 0.00 0.00 0.00 47 1002.0
20260903091511 53 228 0.0 0.0 0.00 0.00 0.00 49 1002.1
20260903090006 53 222 0.0 0.0 0.00 0.00 0.00 48 1002.1
20260903084507 53 216 0.0 4.0 0.00 0.00 0.00 48 1002.1
20260903083006 53 238 0.0 2.0 0.00 0.00 0.00 47 1002.3
20260903081503 53 201 0.0 2.0 0.00 0.00 0.00 46 1002.2
20260903080002 53 195 0.0 2.0 0.00 0.00 0.00 47 1001.9
20260903074502 53 225 0.0 4.0 0.00 0.00 0.00 48 1001.9
20260903073108 53 209 0.0 1.0 0.00 0.00 0.00 49 1001.9
20260903071603 54 214 0.0 0.0 0.00 0.00 0.00 47 1002.0
20260903070054 55 221 0.0 0.0 0.00 0.00 0.00 47 1001.9
20260903064551 56 181 0.0 0.0 0.00 0.00 0.00 45 1001.7
20260903063054 56 185 0.0 0.0 0.00 0.00 0.00 43 1001.8
20260903061600 56 198 0.0 1.0 0.00 0.00 0.00 44 1001.9
20260903060046 55 211 0.0 2.0 0.00 0.00 0.00 46 1001.8
20260903054545 55 218 0.0 1.0 0.00 0.00 0.00 49 1001.7
20260903053058 55 225 0.0 2.0 0.00 0.00 0.00 51 1001.7
20260903051543 55 279 0.0 0.0 0.00 0.00 0.00 53 1001.8
20260903050041 56 210 0.0 0.0 0.00 0.00 0.00 51 1001.5
20260903044540 54 227 0.0 0.0 0.00 0.00 0.00 57 1002.0
20260903043042 55 240 0.0 0.0 0.00 0.00 0.00 59 1001.8
20260903041541 55 240 0.0 0.0 0.00 0.00 0.00 62 1001.8
20260903040039 58 240 0.0 0.0 0.00 0.00 0.00 57 1001.7
20260903034538 58 213 0.0 0.0 0.00 0.00 0.00 59 1001.4
20260903033043 58 175 0.0 0.0 0.00 0.00 0.00 56 1001.1
20260903031539 60 194 0.0 0.0 0.00 0.00 0.00 53 1001.1
20260903024537 65 194 0.0 0.0 0.00 0.00 0.00 38 1000.8
20260903023036 66 194 0.0 0.0 0.00 0.00 0.00 34 1000.6
20260903021536 68 203 0.0 0.0 0.00 0.00 0.00 34 1000.4
20260903020035 68 206 0.0 1.0 0.00 0.00 0.00 32 1000.4
20260903014534 70 223 0.0 0.0 0.00 0.00 0.00 31 1000.2
20260903013041 72 220 0.0 2.0 0.00 0.00 0.00 30 1000.2
20260903011533 73 195 0.0 0.0 0.00 0.00 0.00 28 1000.1
20260903010036 74 142 0.0 0.0 0.00 0.00 0.00 29 1000.2
20260903004531 73 294 0.0 2.0 0.00 0.00 0.00 27 1000.3
20260903003037 73 323 0.0 1.0 0.00 0.00 0.00 30 1000.3
20260903001531 74 310 0.0 0.0 0.00 0.00 0.00 28 1000.3
20260903000030 74 279 0.0 1.0 0.00 0.00 0.00 28 1000.2
20260902234529 75 323 0.0 3.0 0.00 0.00 0.00 27 1000.2
20260902233029 75 285 0.0 1.0 0.00 0.00 0.00 28 1000.3
20260902231531 75 350 0.0 0.0 0.00 0.00 0.00 26 1000.0
20260902230026 76 161 0.0 0.0 0.00 0.00 0.00 26 1000.2
20260902224542 77 210 0.0 0.0 0.00 0.00 0.00 24 1000.3
20260902223025 77 232 0.0 1.0 0.00 0.00 0.00 26 1000.3
20260902221533 75 212 0.0 2.0 0.00 0.00 0.00 26 1000.5
20260902220044 76 332 0.0 2.0 0.00 0.00 0.00 26 1000.7
20260902214521 77 255 0.0 5.0 0.00 0.00 0.00 26 1000.8
20260902213020 77 287 1.0 13.0 0.00 0.00 0.00 23 1001.0
20260902211525 77 259 2.0 10.0 0.00 0.00 0.00 25 1000.8
20260902210022 76 263 0.0 6.0 0.00 0.00 0.00 27 1000.9
20260902204523 75 242 0.0 2.0 0.00 0.00 0.00 27 1000.8
20260902203017 76 293 2.0 11.0 0.00 0.00 0.00 23 1001.0
20260902201534 77 204 0.0 5.0 0.00 0.00 0.00 24 1000.9
20260902200016 78 217 0.0 5.0 0.00 0.00 0.00 21 1000.9
20260902194527 79 238 0.0 4.0 0.00 0.00 0.00 24 1001.0
20260902193030 77 229 0.0 4.0 0.00 0.00 0.00 25 1001.1
20260902191509 78 195 1.0 12.0 0.00 0.00 0.00 25 1001.3
20260902190008 78 200 0.0 11.0 0.00 0.00 0.00 23 1001.5
20260902184503 76 289 0.0 8.0 0.00 0.00 0.00 25 1001.9
20260902183124 77 303 0.0 14.0 0.00 0.00 0.00 24 1002.0
20260902181609 77 244 0.0 8.0 0.00 0.00 0.00 25 1002.4
20260902180054 76 225 0.0 2.0 0.00 0.00 0.00 24 1002.6
20260902174549 76 238 0.0 2.0 0.00 0.00 0.00 26 1002.7
20260902173047 76 240 0.0 2.0 0.00 0.00 0.00 25 1003.0
20260902171553 74 317 0.0 4.0 0.00 0.00 0.00 27 1003.1
20260902170044 75 287 0.0 5.0 0.00 0.00 0.00 28 1003.1
20260902164543 76 317 0.0 4.0 0.00 0.00 0.00 29 1003.0
20260902163044 75 225 0.0 4.0 0.00 0.00 0.00 30 1003.1